EW3708 Weather Reports


time (UTC)temp
C
wind
direction
speed
KPH
gust
KPH
rain 1hr
cm
rain 24hr
cm
rain mn
cm
humidity
%
barometer
mb
20240614114503 18 207 0.0 1.6 0.00 0.00 0.00 96 1010.7
20240614113001 18 207 0.0 3.2 0.00 0.00 0.00 96 1010.6
20240614111503 18 196 1.6 3.2 0.00 0.00 0.00 96 1010.5
20240614110100 17 196 0.0 3.2 0.00 0.00 0.00 96 1010.4
20240614104601 17 222 0.0 1.6 0.00 0.00 0.00 96 1010.4
20240614103103 17 222 0.0 1.6 0.00 0.00 0.00 96 1010.3
20240614101558 17 223 0.0 1.6 0.00 0.00 0.00 95 1010.3
20240614100102 17 223 0.0 1.6 0.00 0.00 0.00 95 1010.2
20240614094608 17 223 1.6 4.8 0.00 0.00 0.00 95 1010.1
20240614093105 17 205 0.0 3.2 0.00 0.00 0.00 95 1010.3
20240614091558 17 205 0.0 3.2 0.00 0.00 0.00 95 1010.3
20240614090100 17 205 1.6 3.2 0.00 0.00 0.00 94 1010.3
20240614084601 17 205 1.6 3.2 0.00 0.00 0.00 94 1010.2
20240614083055 17 205 0.0 1.6 0.00 0.00 0.00 94 1010.3
20240614081549 18 205 0.0 1.6 0.00 0.00 0.00 93 1010.4
20240614080049 18 205 1.6 3.2 0.00 0.00 0.00 94 1010.7
20240614074546 18 205 0.0 3.2 0.00 0.00 0.00 93 1010.8
20240614073044 18 205 0.0 1.6 0.00 0.00 0.00 92 1010.7
20240614071545 18 205 1.6 3.2 0.00 0.00 0.00 92 1010.8
20240614070057 18 205 0.0 1.6 0.00 0.00 0.00 92 1011.0
20240614064538 18 205 0.0 3.2 0.00 0.00 0.00 91 1011.2
20240614063038 18 198 0.0 3.2 0.00 0.00 0.00 90 1011.0
20240614061536 19 111 0.0 4.8 0.00 0.00 0.00 90 1011.1
20240614060032 19 110 0.0 3.2 0.00 0.00 0.00 90 1011.2
20240614054530 19 119 0.0 3.2 0.00 0.00 0.00 89 1011.5
20240614053028 19 125 0.0 3.2 0.00 0.00 0.00 89 1011.6
20240614051525 19 125 0.0 3.2 0.00 0.00 0.00 88 1011.9
20240614050024 20 125 0.0 4.8 0.00 0.00 0.00 88 1012.0
20240614044523 20 88 1.6 4.8 0.00 0.00 0.00 88 1012.2
20240614043031 20 130 1.6 4.8 0.00 0.00 0.00 87 1012.3
20240614041518 20 153 1.6 4.8 0.00 0.00 0.00 87 1012.7
20240614040018 20 153 0.0 3.2 0.00 0.00 0.00 86 1012.8
20240614034526 20 153 1.6 3.2 0.00 0.00 0.00 85 1013.1
20240614033016 20 153 0.0 3.2 0.00 0.00 0.00 84 1013.2
20240614031527 20 153 0.0 3.2 0.00 0.00 0.00 84 1013.1
20240614030015 20 153 1.6 3.2 0.00 0.00 0.00 83 1013.1
20240614024514 20 153 0.0 3.2 0.00 0.00 0.00 82 1012.8
20240614023014 20 153 1.6 3.2 0.00 0.00 0.00 81 1012.7
20240614021513 20 153 1.6 4.8 0.00 0.00 0.00 80 1012.7
20240614020011 21 153 1.6 4.8 0.00 0.00 0.00 79 1012.9
20240614014521 21 153 0.0 3.2 0.00 0.00 0.00 78 1013.0
20240614013018 21 153 0.0 3.2 0.00 0.00 0.00 77 1012.9
20240614011510 21 153 1.6 3.2 0.00 0.00 0.00 75 1012.8
20240614010014 22 153 0.0 3.2 0.00 0.00 0.00 72 1012.8
20240614004521 22 153 0.0 3.2 0.00 0.00 0.00 70 1012.8
20240614003009 23 153 0.0 3.2 0.00 0.00 0.00 68 1012.8
20240614001509 23 153 1.6 4.8 0.00 0.00 0.00 66 1012.9
20240614000025 24 153 1.6 3.2 0.00 0.00 0.00 64 1012.9
20240613234505 24 153 1.6 8.0 0.00 0.00 0.00 62 1013.1
20240613233004 25 163 1.6 8.0 0.00 0.00 0.00 60 1013.1
20240613231514 25 192 1.6 4.8 0.00 0.00 0.00 59 1013.2
20240613230008 25 192 1.6 6.4 0.00 0.00 0.00 58 1013.4
20240613224502 25 215 1.6 8.0 0.00 0.00 0.00 57 1013.4
20240613223001 25 169 1.6 8.0 0.00 0.00 0.00 56 1013.3
20240613221615 26 244 1.6 6.4 0.00 0.00 0.00 55 1013.2
20240613220111 26 199 1.6 9.7 0.00 0.00 0.00 54 1013.1
20240613214558 26 170 4.8 11.3 0.00 0.00 0.00 52 1013.0
20240613213057 26 155 1.6 11.3 0.00 0.00 0.00 51 1013.0
20240613211555 26 200 3.2 9.7 0.00 0.00 0.00 49 1013.2
20240613210111 26 268 3.2 6.4 0.00 0.00 0.00 48 1013.1
20240613204553 26 187 1.6 8.0 0.00 0.00 0.00 47 1013.1
20240613203050 26 183 1.6 9.7 0.00 0.00 0.00 48 1013.3
20240613201551 26 261 1.6 6.4 0.00 0.00 0.00 46 1013.4
20240613200048 27 169 3.2 14.5 0.00 0.00 0.00 46 1013.6
20240613194556 27 153 3.2 12.9 0.00 0.00 0.00 46 1013.8
20240613193049 27 224 1.6 8.0 0.00 0.00 0.00 47 1014.0
20240613191544 27 210 1.6 11.3 0.00 0.00 0.00 46 1014.2
20240613190039 27 254 3.2 11.3 0.00 0.00 0.00 47 1014.4
20240613184605 27 189 3.2 11.3 0.00 0.00 0.00 46 1014.6
20240613183036 27 123 1.6 9.7 0.00 0.00 0.00 45 1014.7
20240613181549 27 165 1.6 6.4 0.00 0.00 0.00 46 1014.7
20240613180044 27 210 3.2 11.3 0.00 0.00 0.00 46 1014.8
20240613174533 27 154 3.2 12.9 0.00 0.00 0.00 45 1014.9
20240613173034 27 232 3.2 12.9 0.00 0.00 0.00 48 1014.9
20240613171539 27 169 1.6 6.4 0.00 0.00 0.00 46 1015.0
20240613170034 26 151 3.2 9.7 0.00 0.00 0.00 48 1015.1
20240613164526 26 222 3.2 8.0 0.00 0.00 0.00 47 1015.3
20240613163023 26 157 4.8 11.3 0.00 0.00 0.00 49 1015.3
20240613161531 25 173 4.8 11.3 0.00 0.00 0.00 48 1015.5
20240613160044 25 205 1.6 9.7 0.00 0.00 0.00 51 1015.5
20240613154518 24 272 1.6 4.8 0.00 0.00 0.00 48 1015.4
20240613153016 23 186 3.2 9.7 0.00 0.00 0.00 48 1015.7
20240613151533 23 5 1.6 6.4 0.00 0.00 0.00 50 1015.7
20240613150009 23 153 1.6 8.0 0.00 0.00 0.00 51 1015.6
20240613144506 22 161 0.0 8.0 0.00 0.00 0.00 55 1015.6
20240613143040 22 212 1.6 4.8 0.00 0.00 0.00 56 1015.7
20240613141535 21 158 0.0 3.2 0.00 0.00 0.00 61 1015.8
20240613140023 20 174 0.0 3.2 0.00 0.00 0.00 65 1015.8
20240613134524 19 169 0.0 4.8 0.00 0.00 0.00 72 1016.0
20240613133015 18 169 0.0 1.6 0.00 0.00 0.00 74 1016.1
20240613131512 17 169 0.0 3.2 0.00 0.00 0.00 79 1016.3
20240613130007 16 125 0.0 3.2 0.00 0.00 0.00 88 1016.4
20240613124502 14 172 0.0 3.2 0.00 0.00 0.00 95 1016.5
20240613123059 13 172 0.0 0.0 0.00 0.00 0.00 95 1016.5
20240613121617 12 172 0.0 0.0 0.00 0.00 0.00 95 1016.5
20240613120052 11 172 0.0 0.0 0.00 0.00 0.00 95 1016.5